DW8078 Weather Reports


time (UTC)temp
C
wind
direction
speed
KPH
gust
KPH
rain 1hr
cm
rain 24hr
cm
rain mn
cm
humidity
%
barometer
mb
20201026191555 11 192 3.2 11.3 0.00 0.00 0.00 88 1005.0
20201026190054 11 206 6.4 12.9 0.00 0.00 0.00 88 1005.1
20201026184538 11 184 0.0 6.4 0.00 0.00 0.00 87 1005.4
20201026183036 11 184 3.2 12.9 0.00 0.00 0.00 87 1005.7
20201026181528 11 181 4.8 12.9 0.00 0.00 0.00 87 1005.6
20201026180025 11 206 4.8 12.9 0.00 0.00 0.00 86 1005.7
20201026174540 11 182 4.8 12.9 0.00 0.00 0.00 86 1005.7
20201026173039 11 178 6.4 12.9 0.00 0.00 0.00 86 1005.9
20201026171529 12 186 9.7 20.9 0.00 0.00 0.00 86 1005.7
20201026170028 12 175 8.0 17.7 0.00 0.00 0.00 85 1005.9
20201026164553 12 205 8.0 14.5 0.00 0.00 0.00 85 1006.0
20201026163027 12 241 6.4 14.5 0.00 0.00 0.00 85 1005.9
20201026161527 12 223 4.8 12.9 0.00 0.00 0.00 85 1006.1
20201026160023 12 215 0.0 11.3 0.00 0.00 0.00 84 1006.1
20201026154543 12 213 4.8 14.5 0.00 0.00 0.00 84 1005.7
20201026153043 13 164 6.4 17.7 0.00 0.00 0.00 84 1005.1
20201026151520 13 200 9.7 16.1 0.00 0.00 0.00 83 1005.0
20201026150035 13 184 4.8 17.7 0.00 0.00 0.00 83 1005.1
20201026144526 13 189 8.0 19.3 0.00 0.00 0.00 82 1005.3
20201026143025 13 202 4.8 19.3 0.00 0.00 0.00 82 1005.5
20201026141526 13 154 9.7 16.1 0.00 0.00 0.00 82 1005.4
20201026140033 13 190 6.4 14.5 0.00 0.00 0.00 82 1005.7
20201026134539 13 201 0.0 0.0 0.00 0.00 0.00 82 1005.9
20201026133009 13 193 0.0 0.0 0.00 0.00 0.00 83 1006.0
20201026131645 13 184 0.0 0.0 0.00 0.00 0.00 83 1006.1
20201026130342 13 185 1.6 12.9 0.00 0.00 0.00 83 1006.1
20201026124630 13 217 4.8 11.3 0.00 0.00 0.00 83 1006.3
20201026123128 13 194 0.0 8.0 0.00 0.00 0.00 83 1006.5
20201026121709 13 187 3.2 16.1 0.00 0.00 0.00 83 1006.6
20201026120106 13 227 1.6 12.9 0.00 0.00 0.00 84 1006.7
20201026114648 12 198 6.4 17.7 0.00 0.00 0.00 85 1006.6
20201026113310 12 212 3.2 14.5 0.00 0.00 0.00 85 1006.7
20201026111630 12 202 3.2 12.9 0.00 0.00 0.00 86 1006.6
20201026110122 11 201 6.4 11.3 0.00 0.00 0.00 87 1006.6
20201026104622 11 237 4.8 14.5 0.00 0.00 0.00 87 1006.9
20201026103042 11 270 4.8 14.5 0.00 0.00 0.00 88 1007.0
20201026101608 11 228 4.8 12.9 0.00 0.00 0.00 88 1007.2
20201026100123 11 250 0.0 11.3 0.00 0.00 0.00 89 1007.3
20201026094537 10 188 3.2 11.3 0.00 0.00 0.00 89 1007.4
20201026093049 10 205 0.0 16.1 0.00 0.00 0.00 88 1007.6
20201026091608 10 250 6.4 16.1 0.00 0.00 0.00 88 1007.7
20201026090033 10 223 4.8 16.1 0.00 0.00 0.00 88 1007.9
20201026084620 10 199 4.8 17.7 0.00 0.00 0.00 88 1007.9
20201026083029 10 207 6.4 11.3 0.00 0.00 0.00 88 1007.9
20201026081557 10 250 6.4 16.1 0.00 0.00 0.00 87 1007.9
20201026080110 10 242 8.0 22.5 0.00 0.00 0.00 88 1007.9
20201026074543 10 216 3.2 19.3 0.00 0.00 0.00 88 1007.8
20201026073045 10 261 4.8 16.1 0.00 0.00 0.00 88 1007.7
20201026071543 10 225 4.8 11.3 0.00 0.00 0.00 87 1007.8
20201026070057 10 283 6.4 16.1 0.00 0.00 0.00 87 1007.7
20201026064547 10 267 6.4 17.7 0.00 0.00 0.00 87 1007.8
20201026063047 10 289 8.0 19.3 0.00 0.00 0.00 87 1007.8
20201026061610 10 221 8.0 25.7 0.00 0.00 0.00 88 1007.8
20201026060035 10 207 9.7 25.7 0.00 0.00 0.00 88 1007.4
20201026054540 10 187 8.0 24.1 0.00 0.00 0.00 88 1007.4
20201026053034 10 206 9.7 19.3 0.00 0.00 0.00 88 1007.4
20201026051521 10 186 9.7 20.9 0.00 0.00 0.00 88 1007.1
20201026050028 10 226 6.4 16.1 0.00 0.00 0.00 88 1007.4
20201026044528 10 208 3.2 16.1 0.00 0.00 0.00 88 1007.6
20201026043024 10 214 4.8 14.5 0.00 0.00 0.00 88 1007.5
20201026041528 10 202 6.4 17.7 0.00 0.00 0.00 88 1007.3
20201026040030 10 250 3.2 19.3 0.00 0.00 0.00 88 1007.6
20201026034532 10 207 6.4 19.3 0.00 0.00 0.00 88 1007.6
20201026033044 10 193 11.3 27.4 0.00 0.00 0.00 88 1007.4
20201026031517 10 202 6.4 14.5 0.00 0.00 0.00 88 1007.9
20201026030022 10 203 9.7 20.9 0.00 0.00 0.00 88 1008.0
20201026024518 10 260 6.4 22.5 0.00 0.00 0.00 88 1008.1
20201026023023 10 271 8.0 27.4 0.00 0.00 0.00 88 1008.0
20201026021808 10 180 9.7 22.5 0.00 0.00 0.00 88 1007.8
20201026020133 10 164 9.7 22.5 0.00 0.00 0.00 88 1008.3
20201026014714 10 202 3.2 19.3 0.00 0.00 0.00 88 1008.2
20201026013151 10 246 9.7 19.3 0.00 0.00 0.00 88 1008.4
20201026011652 10 227 6.4 17.7 0.00 0.00 0.00 88 1008.4
20201026010202 10 232 4.8 14.5 0.00 0.00 0.00 88 1008.7
20201026004619 10 227 9.7 25.7 0.00 0.00 0.00 88 1008.4
20201026003132 10 198 9.7 19.3 0.00 0.00 0.00 89 1008.8
20201026001739 10 196 8.0 22.5 0.00 0.00 0.00 89 1009.0
20201026000132 10 211 8.0 22.5 0.00 0.00 0.00 89 1009.1
20201025234619 10 242 12.9 25.7 0.00 0.00 0.00 89 1009.4
20201025233141 10 264 8.0 22.5 0.00 0.00 0.00 89 1009.5
20201025231737 10 216 8.0 25.7 0.00 0.00 0.00 89 1009.3
20201025230130 10 178 8.0 22.5 0.00 0.00 0.00 88 1009.3
20201025224607 10 215 8.0 29.0 0.00 0.00 0.00 88 1009.4
20201025223119 10 206 6.4 22.5 0.00 0.00 0.00 88 1009.4
20201025221540 10 195 8.0 27.4 0.00 0.00 0.00 88 1009.3
20201025220047 10 214 9.7 30.6 0.00 0.00 0.00 88 1009.2
20201025214552 10 203 4.8 17.7 0.00 0.00 0.00 88 1009.8
20201025213129 10 194 9.7 20.9 0.00 0.00 0.00 87 1009.7
20201025211558 10 211 3.2 17.7 0.00 0.00 0.00 87 1009.9
20201025210039 10 169 9.7 19.3 0.00 0.00 0.00 86 1010.0
20201025204547 10 199 9.7 22.5 0.00 0.00 0.00 86 1010.2
20201025203029 10 194 11.3 22.5 0.00 0.00 0.00 86 1010.1
20201025201630 10 220 8.0 20.9 0.00 0.00 0.00 87 1010.2
20201025200047 10 195 6.4 17.7 0.00 0.00 0.00 87 1010.4
20201025194543 10 213 6.4 20.9 0.00 0.00 0.00 87 1010.4
20201025193032 11 214 4.8 19.3 0.00 0.00 0.00 87 1010.3